TimeMYT,TemperatureF,Dew PointF,Humidity,Sea Level PressureIn,VisibilityMPH,Wind Direction,Wind SpeedMPH,Gust SpeedMPH,PrecipitationIn,Events,Conditions,WindDirDegrees,DateUTC
12:00 AM,75.2,73.4,94,29.83,6.2,Calm,Calm,-,N/A,,Mostly Cloudy,0,2014-05-01 16:00:00
1:00 AM,75.2,73.4,94,29.83,6.2,South,1.2,-,N/A,,Mostly Cloudy,170,2014-05-01 17:00:00
2:00 AM,76,74,92,29.82,9,East,2.3,,,,Partly Cloudy,90,2014-05-01 18:00:00
2:00 AM,75.2,73.4,94,29.80,6.2,East,2.3,-,N/A,,Mostly Cloudy,90,2014-05-01 18:00:00
3:00 AM,75.2,73.4,94,29.80,6.2,Calm,Calm,-,N/A,,Mostly Cloudy,0,2014-05-01 19:00:00
4:00 AM,75.2,73.4,94,29.80,6.2,Calm,Calm,-,N/A,,Mostly Cloudy,0,2014-05-01 20:00:00
5:00 AM,74,73,96,29.82,9,South,1.2,,,,Partly Cloudy,180,2014-05-01 21:00:00
5:00 AM,75.2,73.4,94,29.80,6.2,South,1.2,-,N/A,,Mostly Cloudy,180,2014-05-01 21:00:00
6:00 AM,75.2,73.4,94,29.83,6.2,SE,3.5,-,N/A,,Mostly Cloudy,140,2014-05-01 22:00:00
7:00 AM,75.2,73.4,94,29.86,0.3,SE,3.5,-,N/A,Fog,Fog,140,2014-05-01 23:00:00
8:00 AM,77,75,90,29.88,12,SE,4.6,,,Fog,Light Fog,140,2014-05-02 00:00:00
8:00 AM,77.0,75.2,94,29.86,6.2,SE,4.6,-,N/A,,Mostly Cloudy,140,2014-05-02 00:00:00
9:00 AM,80.6,75.2,84,29.89,6.2,ESE,9.2,-,N/A,,Mostly Cloudy,120,2014-05-02 01:00:00
10:00 AM,84.2,77.0,79,29.86,6.2,SSE,3.5,-,N/A,,Mostly Cloudy,150,2014-05-02 02:00:00
11:00 AM,88,75,57,29.87,19,South,3.5,,,,Scattered Clouds,180,2014-05-02 03:00:00
11:00 AM,87.8,75.2,66,29.86,6.2,South,3.5,-,N/A,,Mostly Cloudy,180,2014-05-02 03:00:00
12:00 PM,89.6,75.2,62,29.83,6.2,South,3.5,-,N/A,,Mostly Cloudy,190,2014-05-02 04:00:00
1:00 PM,91.4,75.2,59,29.80,6.2,SSE,3.5,-,N/A,,Mostly Cloudy,160,2014-05-02 05:00:00
2:00 PM,92,73,46,29.78,19,NW,3.5,,,,Partly Cloudy,310,2014-05-02 06:00:00
2:00 PM,93.2,73.4,52,29.77,6.2,NW,3.5,-,N/A,,Mostly Cloudy,310,2014-05-02 06:00:00
3:00 PM,95.0,73.4,49,29.74,6.2,NW,4.6,-,N/A,,Mostly Cloudy,310,2014-05-02 07:00:00
4:00 PM,93.2,75.2,56,29.74,6.2,West,3.5,-,N/A,,Mostly Cloudy,270,2014-05-02 08:00:00
5:00 PM,92,76,51,29.73,19,WSW,1.2,,,,Partly Cloudy,250,2014-05-02 09:00:00
5:00 PM,91.4,75.2,59,29.71,6.2,WSW,1.2,-,N/A,,Mostly Cloudy,250,2014-05-02 09:00:00
6:00 PM,84.2,75.2,74,29.77,6.2,NE,9.2,-,N/A,Thunderstorm,Thunderstorm,40,2014-05-02 10:00:00
7:00 PM,78.8,75.2,89,29.80,2.5,SSW,3.5,-,N/A,Rain-Thunderstorm,Light Thunderstorms and Rain,210,2014-05-02 11:00:00
8:00 PM,76,74,91,29.84,5,North,8.1,,,Rain-Thunderstorm,Thunderstorms and Rain,0,2014-05-02 12:00:00
8:00 PM,75.2,73.4,94,29.83,5.0,North,8.1,-,N/A,Rain-Thunderstorm,Light Thunderstorms and Rain,360,2014-05-02 12:00:00
9:00 PM,75.2,73.4,94,29.86,6.2,NE,5.8,-,N/A,Rain-Thunderstorm,Light Thunderstorms and Rain,40,2014-05-02 13:00:00
10:00 PM,75.2,73.4,94,29.86,6.2,NE,2.3,-,N/A,Rain,Light Rain,50,2014-05-02 14:00:00
11:00 PM,76,73,88,29.88,11,SE,2.3,,,Rain,Light Rain,140,2014-05-02 15:00:00
11:00 PM,75.2,73.4,94,29.86,6.2,SE,2.3,-,N/A,,Mostly Cloudy,140,2014-05-02 15:00:00